User: anonymous   Login
Location: Irma
(52.9170°N, 111.2330°W)
Time: 13:40:03
(UTC-07:00)
Language:

Cosmos 2279 Rocket - Orbit

View from above orbital plane
View from above orbital plane
View from above satellite
View from above satellite

Ground track
Ground track

The orbit data is extracted from the following two-line orbital elements,

1 23093U 94024B   14331.48236775  .00000058  00000-0  42238-4 0  9402
2 23093 082.9482 088.1318 0011464 100.1439 260.1013 13.77636618503015
Epoch (UTC): 27 November 2014 11:34:36
Eccentricity: 0.0011464
inclination: 82.9482°
perigee height: 964 km
apogee height: 981 km
right ascension of ascending node: 88.1318°
argument of perigee: 100.1439°
revolutions per day: 13.77636618
mean anomaly at epoch: 260.1013°
orbit number at epoch: 50301

The dashed part of the orbit path shows where the satellite is in the earth's shadow,  

DLR